Starlink 6357

operational
NORAD ID: 56783 Int'l Des: 2023-078 Owner: SPXS Country: US Constellation: starlink
LEOCIRCULAR

关于 Starlink 6357

正在加载描述...

实时位置

正在加载3D地球...

即将过境

高度历史

Altitude vs Time

uPlot chart will show altitude changes over time

两行轨道根数

1 56783U 23078S 25259.79415950 -.00000351 00000-0 -21655-4 0 9996
2 56783 70.0008 42.9908 0003077 269.5716 90.5090 14.98328310127126
Epoch: Sep 16, 2025 • Age: 30 hours

当前状态

高度 584.2 km
速度 7.57 km/s
星下点 -36.77°S, 6.99°E
发射日期 May 31, 2023
运行时间 2.2 years
类型 internet

技术详情

分类 Payload
质量 305.00 kg
干质量 290.00 kg
总质量 305.00 kg
长度 0.20 m
直径 2.80 m
跨度 9.00 m
形状 Box + pan
制造商 SPXS
平台类型 Starlink
阶段状态 In Orbit
所有者/国家 SPXS/US

大型星座

Loading constellations...